When you browse on this site, cookies collect data to enhance your experience and personalize the content and advertising you see.
Visit our Privacy Policy to learn more. By continuing to use the site, you agree to this use of cookies and data.
EN

Hourly Weather Gogolev Bor

Today, 23 September, Wednesday

Time Temperature Precipitation Wind Pressure Humidity
00:00 +12°C° 0 mm 4 mps 746 mmHg 81%
01:00 +12°C° 0 mm 4 mps 746 mmHg 84%
02:00 +11°C° 0 mm 3 mps 746 mmHg 87%
03:00 +10°C° 0 mm 3 mps 746 mmHg 91%
04:00 +10°C° 0 mm 3 mps 746 mmHg 92%
05:00 +10°C° 0 mm 3 mps 747 mmHg 94%
06:00 +9°C° 0 mm 3 mps 747 mmHg 96%
07:00 +11°C° 0 mm 3 mps 747 mmHg 90%
08:00 +12°C° 0 mm 3 mps 747 mmHg 85%
09:00 +14°C° 0 mm 3 mps 748 mmHg 79%
10:00 +16°C° 0 mm 3 mps 748 mmHg 70%
11:00 +18°C° 0 mm 3 mps 748 mmHg 62%
12:00 +19°C° 0 mm 3 mps 748 mmHg 54%
13:00 +20°C° 0 mm 3 mps 748 mmHg 52%
14:00 +20°C° 0 mm 3 mps 748 mmHg 50%
15:00 +21°C° 0 mm 3 mps 748 mmHg 48%
16:00 +19°C° 0 mm 2 mps 748 mmHg 54%
17:00 +17°C° 0 mm 2 mps 748 mmHg 60%
18:00 +16°C° 0 mm 1 mps 748 mmHg 66%
19:00 +15°C° 0 mm 1 mps 748 mmHg 68%
20:00 +13°C° 0 mm 0 mps 749 mmHg 70%
21:00 +13°C° 0 mm 0 mps 749 mmHg 72%
22:00 +12°C° 0 mm 0 mps 749 mmHg 73%
23:00 +13°C° 0 mm 1 mps 749 mmHg 74%

Tomorrow, 24 September, Thursday

Time Temperature Precipitation Wind Pressure Humidity
00:00 +13°C° 0 mm 1 mps 749 mmHg 74%
01:00 +13°C° 0 mm 1 mps 749 mmHg 76%
02:00 +12°C° 0 mm 1 mps 750 mmHg 78%
03:00 +12°C° 0 mm 1 mps 750 mmHg 80%
04:00 +10°C° 0 mm 2 mps 750 mmHg 81%
05:00 +10°C° 0 mm 2 mps 750 mmHg 82%
06:00 +10°C° 0 mm 2 mps 750 mmHg 84%
07:00 +13°C° 0 mm 2 mps 750 mmHg 78%
08:00 +14°C° 0 mm 2 mps 751 mmHg 73%
09:00 +16°C° 0 mm 2 mps 751 mmHg 67%
10:00 +17°C° 0 mm 2 mps 751 mmHg 61%
11:00 +19°C° 0 mm 2 mps 751 mmHg 55%
12:00 +20°C° 0 mm 2 mps 751 mmHg 50%
13:00 +21°C° 0 mm 2 mps 751 mmHg 48%
14:00 +21°C° 0 mm 2 mps 751 mmHg 46%
15:00 +21°C° 0 mm 2 mps 751 mmHg 44%
16:00 +20°C° 0 mm 2 mps 751 mmHg 49%
17:00 +18°C° 0 mm 2 mps 750 mmHg 54%
18:00 +16°C° 0 mm 2 mps 750 mmHg 60%
19:00 +16°C° 0 mm 2 mps 751 mmHg 62%
20:00 +15°C° 0 mm 2 mps 751 mmHg 65%
21:00 +14°C° 0 mm 2 mps 751 mmHg 67%
22:00 +14°C° 0 mm 2 mps 751 mmHg 71%
23:00 +12°C° 0 mm 3 mps 751 mmHg 76%

Day after tomorrow, 25 September, Friday

Time Temperature Precipitation Wind Pressure Humidity
00:00 +12°C° 0 mm 3 mps 751 mmHg 80%
01:00 +12°C° 0 mm 3 mps 751 mmHg 82%
02:00 +11°C° 0 mm 3 mps 752 mmHg 84%
03:00 +11°C° 0 mm 3 mps 752 mmHg 86%
04:00 +11°C° 0 mm 3 mps 752 mmHg 85%
05:00 +10°C° 0 mm 3 mps 752 mmHg 83%
06:00 +10°C° 0 mm 3 mps 752 mmHg 81%
07:00 +11°C° 0 mm 3 mps 752 mmHg 74%
08:00 +13°C° 0 mm 3 mps 752 mmHg 67%
09:00 +15°C° 0 mm 4 mps 752 mmHg 61%
10:00 +17°C° 0 mm 4 mps 752 mmHg 57%
11:00 +18°C° 0 mm 4 mps 752 mmHg 53%
12:00 +20°C° 0 mm 4 mps 752 mmHg 49%
13:00 +20°C° 0 mm 4 mps 752 mmHg 48%
14:00 +20°C° 0 mm 4 mps 752 mmHg 46%
15:00 +20°C° 0 mm 4 mps 752 mmHg 45%
16:00 +18°C° 0 mm 3 mps 752 mmHg 50%
17:00 +17°C° 0 mm 3 mps 751 mmHg 54%
18:00 +14°C° 0 mm 3 mps 751 mmHg 59%
19:00 +13°C° 0 mm 3 mps 751 mmHg 58%
20:00 +13°C° 0 mm 3 mps 751 mmHg 57%
21:00 +12°C° 0 mm 3 mps 751 mmHg 56%
22:00 +12°C° 0 mm 3 mps 752 mmHg 57%
23:00 +11°C° 0 mm 3 mps 752 mmHg 58%

26 September, Saturday

Time Temperature Precipitation Wind Pressure Humidity
00:00 +11°C° 0 mm 3 mps 752 mmHg 59%
01:00 +10°C° 0 mm 3 mps 752 mmHg 60%
02:00 +10°C° 0 mm 3 mps 752 mmHg 61%
03:00 +10°C° 0 mm 3 mps 752 mmHg 61%
04:00 +9°C° 0 mm 3 mps 752 mmHg 62%
05:00 +9°C° 0 mm 3 mps 752 mmHg 63%
06:00 +9°C° 0 mm 3 mps 752 mmHg 64%
07:00 +10°C° 0 mm 3 mps 752 mmHg 61%
08:00 +11°C° 0 mm 3 mps 752 mmHg 58%
09:00 +13°C° 0 mm 3 mps 752 mmHg 55%
10:00 +14°C° 0 mm 4 mps 752 mmHg 52%
11:00 +17°C° 0 mm 4 mps 752 mmHg 48%
12:00 +19°C° 0 mm 4 mps 752 mmHg 44%
13:00 +20°C° 0 mm 4 mps 752 mmHg 44%
14:00 +20°C° 0 mm 4 mps 752 mmHg 44%
15:00 +21°C° 0 mm 4 mps 752 mmHg 43%
16:00 +19°C° 0 mm 4 mps 752 mmHg 50%
17:00 +18°C° 0 mm 4 mps 752 mmHg 56%
18:00 +16°C° 0 mm 3 mps 752 mmHg 62%
19:00 +15°C° 0 mm 4 mps 752 mmHg 60%
20:00 +14°C° 0 mm 4 mps 752 mmHg 59%
21:00 +14°C° 0 mm 4 mps 752 mmHg 57%
22:00 +14°C° 0 mm 4 mps 753 mmHg 55%
23:00 +13°C° 0 mm 4 mps 753 mmHg 53%

27 September, Sunday

Time Temperature Precipitation Wind Pressure Humidity
00:00 +13°C° 0 mm 4 mps 753 mmHg 51%
01:00 +13°C° 0 mm 4 mps 753 mmHg 51%
02:00 +12°C° 0 mm 4 mps 754 mmHg 51%
03:00 +12°C° 0 mm 4 mps 754 mmHg 51%
04:00 +11°C° 0 mm 4 mps 754 mmHg 52%
05:00 +10°C° 0 mm 4 mps 754 mmHg 53%
06:00 +10°C° 0 mm 4 mps 754 mmHg 54%
07:00 +11°C° 0 mm 4 mps 754 mmHg 52%
08:00 +12°C° 0 mm 5 mps 755 mmHg 50%
09:00 +13°C° 0 mm 5 mps 755 mmHg 49%
10:00 +14°C° 0 mm 5 mps 755 mmHg 45%
11:00 +16°C° 0 mm 6 mps 755 mmHg 42%
12:00 +17°C° 0 mm 6 mps 755 mmHg 38%
13:00 +17°C° 0 mm 6 mps 755 mmHg 38%
14:00 +17°C° 0 mm 6 mps 755 mmHg 37%
15:00 +19°C° 0 mm 6 mps 754 mmHg 37%
16:00 +16°C° 0 mm 5 mps 754 mmHg 41%
17:00 +15°C° 0 mm 5 mps 754 mmHg 44%
18:00 +14°C° 0 mm 4 mps 754 mmHg 48%
19:00 +13°C° 0 mm 4 mps 754 mmHg 48%
20:00 +13°C° 0 mm 4 mps 755 mmHg 47%
21:00 +12°C° 0 mm 4 mps 755 mmHg 47%
22:00 +12°C° 0 mm 4 mps 755 mmHg 47%
23:00 +11°C° 0 mm 4 mps 755 mmHg 47%

28 September, Monday

Time Temperature Precipitation Wind Pressure Humidity
00:00 +11°C° 0 mm 4 mps 755 mmHg 47%
01:00 +11°C° 0 mm 4 mps 755 mmHg 48%
02:00 +10°C° 0 mm 4 mps 755 mmHg 49%
03:00 +10°C° 0 mm 4 mps 755 mmHg 49%
04:00 +10°C° 0 mm 4 mps 755 mmHg 50%
05:00 +8°C° 0 mm 5 mps 755 mmHg 50%
06:00 +8°C° 0 mm 5 mps 755 mmHg 51%
07:00 +9°C° 0 mm 5 mps 755 mmHg 49%
08:00 +10°C° 0 mm 6 mps 755 mmHg 46%
09:00 +11°C° 0 mm 6 mps 755 mmHg 44%
10:00 +13°C° 0 mm 6 mps 755 mmHg 42%
11:00 +14°C° 0 mm 6 mps 755 mmHg 39%
12:00 +15°C° 0 mm 7 mps 755 mmHg 36%
13:00 +16°C° 0 mm 6 mps 755 mmHg 36%
14:00 +16°C° 0 mm 6 mps 755 mmHg 36%
15:00 +16°C° 0 mm 6 mps 755 mmHg 36%
16:00 +15°C° 0 mm 5 mps 755 mmHg 38%
17:00 +14°C° 0 mm 4 mps 755 mmHg 40%
18:00 +13°C° 0 mm 4 mps 755 mmHg 43%
19:00 +13°C° 0 mm 4 mps 755 mmHg 41%
20:00 +13°C° 0 mm 4 mps 755 mmHg 40%
21:00 +13°C° 0 mm 4 mps 755 mmHg 39%
22:00 +13°C° 0 mm 4 mps 755 mmHg 40%
23:00 +12°C° 0 mm 4 mps 755 mmHg 41%
Show more